Time,TemperatureF,DewpointF,PressureIn,WindDirection,WindDirectionDegrees,WindSpeedMPH,WindSpeedGustMPH,Humidity,HourlyPrecipIn,Conditions,Clouds,dailyrainin,SoftwareType,DateUTC
2013-03-20 00:00:00,55.3,50.9,29.98,ENE,58,12.0,12.0,85,0.04,,SKC,0.04,VWS V14.01,2013-03-20 05:00:00,
2013-03-20 00:05:00,55.3,50.9,29.98,NE,38,7.0,9.0,85,0.01,,SKC,0.00,VWS V14.01,2013-03-20 05:05:00,
2013-03-20 00:10:00,55.2,50.8,29.98,NNE,19,11.0,15.0,85,0.01,,SKC,0.00,VWS V14.01,2013-03-20 05:10:00,
2013-03-20 00:15:00,54.9,50.5,29.98,NE,43,15.0,15.0,85,0.00,,SKC,0.00,VWS V14.01,2013-03-20 05:15:00,
2013-03-20 00:20:00,54.6,50.2,29.98,NNE,18,13.0,16.0,85,0.00,,SKC,0.00,VWS V14.01,2013-03-20 05:20:00,
2013-03-20 00:25:00,54.4,50.0,29.98,NE,34,16.0,16.0,85,0.00,,SKC,0.00,VWS V14.01,2013-03-20 05:25:00,
2013-03-20 00:30:00,54.2,49.8,29.99,NNE,33,9.0,12.0,85,0.00,,SKC,0.00,VWS V14.01,2013-03-20 05:30:00,
2013-03-20 00:35:00,54.1,49.7,29.99,NE,36,10.0,13.0,85,0.00,,SKC,0.00,VWS V14.01,2013-03-20 05:35:00,
2013-03-20 00:40:00,54.2,49.8,29.99,NNE,29,11.0,14.0,85,0.00,,SKC,0.00,VWS V14.01,2013-03-20 05:40:00,
2013-03-20 00:45:00,54.2,49.8,29.99,ENE,63,10.0,15.0,85,0.00,,SKC,0.00,VWS V14.01,2013-03-20 05:45:00,
2013-03-20 00:50:00,54.2,49.5,29.99,North,11,10.0,12.0,84,0.00,,SKC,0.00,VWS V14.01,2013-03-20 05:50:00,
2013-03-20 00:55:00,54.2,49.2,29.99,NNE,25,13.0,17.0,83,0.00,,SKC,0.00,VWS V14.01,2013-03-20 05:55:00,
2013-03-20 01:00:00,54.2,49.2,29.99,NE,34,19.0,19.0,83,0.00,,SKC,0.00,VWS V14.01,2013-03-20 06:00:00,
2013-03-20 01:05:00,54.1,48.7,29.99,NNE,30,12.0,14.0,82,0.00,,SKC,0.00,VWS V14.01,2013-03-20 06:05:00,
2013-03-20 01:10:00,54.0,48.6,29.99,ENE,67,11.0,14.0,82,0.00,,SKC,0.00,VWS V14.01,2013-03-20 06:10:00,
2013-03-20 01:15:00,53.9,48.5,30.00,NNE,28,10.0,14.0,82,0.00,,SKC,0.00,VWS V14.01,2013-03-20 06:15:00,
2013-03-20 01:20:00,53.9,48.5,30.00,NNW,348,8.0,17.0,82,0.00,,SKC,0.00,VWS V14.01,2013-03-20 06:20:00,
2013-03-20 01:25:00,53.9,48.5,30.00,NE,36,6.0,13.0,82,0.00,,SKC,0.00,VWS V14.01,2013-03-20 06:25:00,
2013-03-20 01:30:00,53.9,48.5,30.00,North,5,4.0,6.0,82,0.00,,SKC,0.00,VWS V14.01,2013-03-20 06:30:00,
2013-03-20 01:35:00,53.7,48.3,30.01,NNE,29,12.0,15.0,82,0.00,,SKC,0.00,VWS V14.01,2013-03-20 06:35:00,
2013-03-20 01:40:00,53.6,48.6,30.01,NNE,31,6.0,17.0,83,0.00,,SKC,0.00,VWS V14.01,2013-03-20 06:40:00,
2013-03-20 01:45:00,53.6,48.6,30.01,NE,51,12.0,17.0,83,0.00,,SKC,0.00,VWS V14.01,2013-03-20 06:45:00,
2013-03-20 01:50:00,53.5,48.2,30.01,NE,40,12.0,18.0,82,0.00,,SKC,0.00,VWS V14.01,2013-03-20 06:50:00,
2013-03-20 01:55:00,53.6,48.2,30.01,ENE,62,12.0,17.0,82,0.00,,SKC,0.00,VWS V14.01,2013-03-20 06:55:00,
2013-03-20 02:00:00,53.6,48.2,30.01,ENE,69,12.0,12.0,82,0.00,,SKC,0.00,VWS V14.01,2013-03-20 07:00:00,
2013-03-20 02:05:00,53.5,48.2,30.01,ENE,58,9.0,12.0,82,0.00,,SKC,0.00,VWS V14.01,2013-03-20 07:05:00,
2013-03-20 02:10:00,53.5,48.2,30.01,East,99,5.0,14.0,82,0.00,,SKC,0.00,VWS V14.01,2013-03-20 07:10:00,
2013-03-20 02:15:00,53.5,48.2,30.02,ENE,65,17.0,19.0,82,0.00,,SKC,0.00,VWS V14.01,2013-03-20 07:15:00,
2013-03-20 02:20:00,53.4,48.0,30.01,NE,36,7.0,17.0,82,0.00,,SKC,0.00,VWS V14.01,2013-03-20 07:20:00,
2013-03-20 02:25:00,53.4,47.7,30.01,ENE,64,6.0,12.0,81,0.00,,SKC,0.00,VWS V14.01,2013-03-20 07:25:00,
2013-03-20 02:30:00,53.4,47.7,30.01,ENE,63,10.0,13.0,81,0.00,,SKC,0.00,VWS V14.01,2013-03-20 07:30:00,
2013-03-20 02:35:00,53.3,48.0,30.02,NE,49,6.0,12.0,82,0.00,,SKC,0.00,VWS V14.01,2013-03-20 07:35:00,
2013-03-20 02:40:00,53.3,48.0,30.02,ENE,74,7.0,9.0,82,0.00,,SKC,0.00,VWS V14.01,2013-03-20 07:40:00,
2013-03-20 02:45:00,53.2,47.9,30.01,ENE,61,10.0,10.0,82,0.00,,SKC,0.00,VWS V14.01,2013-03-20 07:45:00,
2013-03-20 02:50:00,53.2,47.9,30.02,ENE,65,6.0,12.0,82,0.00,,SKC,0.00,VWS V14.01,2013-03-20 07:50:00,
2013-03-20 02:55:00,53.2,47.9,30.01,ENE,78,5.0,9.0,82,0.00,,SKC,0.00,VWS V14.01,2013-03-20 07:55:00,
2013-03-20 03:00:00,53.2,47.9,30.02,NE,34,6.0,6.0,82,0.00,,SKC,0.00,VWS V14.01,2013-03-20 08:00:00,
2013-03-20 03:05:00,53.3,48.0,30.04,NNE,27,7.0,7.0,82,0.00,,SKC,0.00,VWS V14.01,2013-03-20 08:05:00,
2013-03-20 03:10:00,53.3,48.3,30.03,ENE,65,5.0,8.0,83,0.00,,SKC,0.00,VWS V14.01,2013-03-20 08:10:00,
2013-03-20 03:15:00,53.3,48.3,30.04,NE,48,4.0,10.0,83,0.00,,SKC,0.00,VWS V14.01,2013-03-20 08:15:00,
2013-03-20 03:20:00,53.3,48.3,30.05,NNE,31,3.0,8.0,83,0.00,,SKC,0.00,VWS V14.01,2013-03-20 08:20:00,
2013-03-20 03:25:00,53.3,48.3,30.06,NNE,25,7.0,13.0,83,0.00,,SKC,0.00,VWS V14.01,2013-03-20 08:25:00,
2013-03-20 03:30:00,53.2,48.5,30.06,NNE,20,12.0,12.0,84,0.00,,SKC,0.00,VWS V14.01,2013-03-20 08:30:00,
2013-03-20 03:35:00,52.9,48.5,30.07,NNW,346,3.0,7.0,85,0.04,,SKC,0.04,VWS V14.01,2013-03-20 08:35:00,
2013-03-20 03:40:00,52.6,48.5,30.07,North,351,4.0,5.0,86,0.08,,SKC,0.08,VWS V14.01,2013-03-20 08:40:00,
2013-03-20 03:45:00,52.2,48.2,30.07,NNE,15,8.0,10.0,86,0.12,,SKC,0.12,VWS V14.01,2013-03-20 08:45:00,
2013-03-20 03:50:00,51.9,48.2,30.06,NNE,13,3.0,5.0,87,0.12,,SKC,0.12,VWS V14.01,2013-03-20 08:50:00,
2013-03-20 03:55:00,51.8,48.1,30.06,NNE,15,3.0,4.0,87,0.12,,SKC,0.12,VWS V14.01,2013-03-20 08:55:00,
2013-03-20 04:00:00,51.7,48.0,30.05,NNE,18,4.0,6.0,87,0.12,,SKC,0.12,VWS V14.01,2013-03-20 09:00:00,
2013-03-20 04:05:00,51.5,48.1,30.05,North,11,4.0,6.0,88,0.12,,SKC,0.12,VWS V14.01,2013-03-20 09:05:00,
2013-03-20 04:10:00,51.2,47.8,30.05,NNE,13,7.0,11.0,88,0.12,,SKC,0.12,VWS V14.01,2013-03-20 09:10:00,
2013-03-20 04:15:00,50.9,47.5,30.05,North,355,5.0,13.0,88,0.12,,SKC,0.12,VWS V14.01,2013-03-20 09:15:00,
2013-03-20 04:20:00,50.6,47.2,30.05,NNE,20,6.0,13.0,88,0.12,,SKC,0.12,VWS V14.01,2013-03-20 09:20:00,
2013-03-20 04:25:00,50.5,47.1,30.05,NE,38,3.0,11.0,88,0.12,,SKC,0.12,VWS V14.01,2013-03-20 09:25:00,
2013-03-20 04:30:00,50.3,46.9,30.05,NE,40,8.0,12.0,88,0.12,,SKC,0.12,VWS V14.01,2013-03-20 09:30:00,
2013-03-20 04:35:00,50.1,46.7,30.05,NNE,14,6.0,10.0,88,0.09,,SKC,0.12,VWS V14.01,2013-03-20 09:35:00,
2013-03-20 04:40:00,49.9,46.8,30.05,NNE,25,5.0,11.0,89,0.05,,SKC,0.12,VWS V14.01,2013-03-20 09:40:00,
2013-03-20 04:45:00,49.6,47.4,30.05,NNE,25,9.0,14.0,92,0.00,,SKC,0.12,VWS V14.01,2013-03-20 09:45:00,
2013-03-20 04:50:00,49.4,46.3,30.04,North,5,7.0,12.0,89,0.00,,SKC,0.12,VWS V14.01,2013-03-20 09:50:00,
2013-03-20 04:55:00,49.2,46.1,30.05,NE,34,2.0,9.0,89,0.00,,SKC,0.12,VWS V14.01,2013-03-20 09:55:00,
2013-03-20 05:00:00,49.2,46.1,30.05,North,11,5.0,9.0,89,0.00,,SKC,0.12,VWS V14.01,2013-03-20 10:00:00,
2013-03-20 05:05:00,49.1,46.0,30.04,NNE,26,5.0,10.0,89,0.00,,SKC,0.12,VWS V14.01,2013-03-20 10:05:00,
2013-03-20 05:10:00,49.1,46.0,30.05,NNE,33,3.0,6.0,89,0.00,,SKC,0.12,VWS V14.01,2013-03-20 10:10:00,
2013-03-20 05:15:00,49.0,45.9,30.05,NE,37,3.0,10.0,89,0.00,,SKC,0.12,VWS V14.01,2013-03-20 10:15:00,
2013-03-20 05:20:00,48.9,45.8,30.05,North,360,5.0,9.0,89,0.00,,SKC,0.12,VWS V14.01,2013-03-20 10:20:00,
2013-03-20 05:25:00,48.8,45.7,30.06,North,11,9.0,14.0,89,0.00,,SKC,0.12,VWS V14.01,2013-03-20 10:25:00,
2013-03-20 05:30:00,48.8,45.7,30.07,North,355,14.0,14.0,89,0.00,,SKC,0.12,VWS V14.01,2013-03-20 10:30:00,
2013-03-20 05:35:00,48.8,45.7,30.06,NNE,22,5.0,12.0,89,0.00,,SKC,0.12,VWS V14.01,2013-03-20 10:35:00,
2013-03-20 05:40:00,48.8,45.7,30.07,NNW,346,10.0,11.0,89,0.00,,SKC,0.12,VWS V14.01,2013-03-20 10:40:00,
2013-03-20 05:45:00,48.7,45.6,30.07,North,5,7.0,10.0,89,0.00,,SKC,0.12,VWS V14.01,2013-03-20 10:45:00,
2013-03-20 05:50:00,48.7,45.6,30.07,NNE,22,4.0,9.0,89,0.00,,SKC,0.12,VWS V14.01,2013-03-20 10:50:00,
2013-03-20 05:55:00,48.7,45.6,30.07,NNE,17,5.0,6.0,89,0.00,,SKC,0.12,VWS V14.01,2013-03-20 10:55:00,
2013-03-20 06:00:00,48.7,45.9,30.08,North,5,11.0,11.0,90,0.00,,SKC,0.12,VWS V14.01,2013-03-20 11:00:00,
2013-03-20 06:05:00,48.3,45.2,30.08,NNE,33,6.0,9.0,89,0.00,,SKC,0.12,VWS V14.01,2013-03-20 11:05:00,
2013-03-20 06:10:00,47.9,45.1,30.08,NNE,22,7.0,7.0,90,0.00,,SKC,0.12,VWS V14.01,2013-03-20 11:10:00,
2013-03-20 06:15:00,47.7,44.6,30.08,NE,35,9.0,9.0,89,0.00,,SKC,0.12,VWS V14.01,2013-03-20 11:15:00,
2013-03-20 06:20:00,47.7,44.6,30.09,NE,45,6.0,6.0,89,0.00,,SKC,0.12,VWS V14.01,2013-03-20 11:20:00,
2013-03-20 06:25:00,47.6,44.5,30.09,NE,40,6.0,6.0,89,0.00,,SKC,0.12,VWS V14.01,2013-03-20 11:25:00,
2013-03-20 06:30:00,47.7,44.6,30.09,NNE,26,6.0,6.0,89,0.00,,SKC,0.12,VWS V14.01,2013-03-20 11:30:00,
2013-03-20 06:35:00,47.7,44.6,30.10,NNE,30,7.0,9.0,89,0.00,,SKC,0.12,VWS V14.01,2013-03-20 11:35:00,
2013-03-20 06:40:00,47.7,44.6,30.10,NNE,21,4.0,4.0,89,0.00,,SKC,0.12,VWS V14.01,2013-03-20 11:40:00,
2013-03-20 06:45:00,47.7,44.6,30.10,NNE,28,3.0,4.0,89,0.00,,SKC,0.12,VWS V14.01,2013-03-20 11:45:00,
2013-03-20 06:50:00,47.7,44.6,30.11,North,11,11.0,11.0,89,0.00,,SKC,0.12,VWS V14.01,2013-03-20 11:50:00,
2013-03-20 06:55:00,47.3,44.2,30.11,North,5,9.0,10.0,89,0.00,,SKC,0.12,VWS V14.01,2013-03-20 11:55:00,
2013-03-20 07:00:00,47.2,44.1,30.12,NNE,26,6.0,6.0,89,0.00,,SKC,0.12,VWS V14.01,2013-03-20 12:00:00,
2013-03-20 07:05:00,47.3,43.9,30.12,NNE,22,4.0,5.0,88,0.00,,SKC,0.12,VWS V14.01,2013-03-20 12:05:00,
2013-03-20 07:10:00,47.3,43.9,30.12,NNE,23,7.0,7.0,88,0.00,,SKC,0.12,VWS V14.01,2013-03-20 12:10:00,
2013-03-20 07:15:00,47.2,43.8,30.13,NNE,26,5.0,9.0,88,0.00,,SKC,0.12,VWS V14.01,2013-03-20 12:15:00,
2013-03-20 07:20:00,47.2,43.5,30.13,North,360,10.0,10.0,87,0.00,,SKC,0.12,VWS V14.01,2013-03-20 12:20:00,
2013-03-20 07:25:00,47.2,43.5,30.14,NE,35,7.0,10.0,87,0.00,,SKC,0.12,VWS V14.01,2013-03-20 12:25:00,
2013-03-20 07:30:00,47.1,43.4,30.14,North,5,10.0,10.0,87,0.00,,SKC,0.12,VWS V14.01,2013-03-20 12:30:00,
2013-03-20 07:35:00,47.1,43.1,30.14,NE,34,10.0,15.0,86,0.00,,SKC,0.12,VWS V14.01,2013-03-20 12:35:00,
2013-03-20 07:40:00,47.1,43.1,30.14,NNE,15,4.0,7.0,86,0.00,,SKC,0.12,VWS V14.01,2013-03-20 12:40:00,
2013-03-20 07:45:00,47.1,43.1,30.14,NNE,21,9.0,10.0,86,0.00,,SKC,0.12,VWS V14.01,2013-03-20 12:45:00,
2013-03-20 07:50:00,47.0,42.7,30.15,NNE,12,7.0,8.0,85,0.00,,SKC,0.12,VWS V14.01,2013-03-20 12:50:00,
2013-03-20 07:55:00,46.8,42.5,30.15,NNE,24,8.0,9.0,85,0.00,,SKC,0.12,VWS V14.01,2013-03-20 12:55:00,
2013-03-20 08:00:00,46.7,42.4,30.15,NNE,19,4.0,6.0,85,0.00,,SKC,0.12,VWS V14.01,2013-03-20 13:00:00,
2013-03-20 08:05:00,46.6,42.0,30.16,NNE,19,9.0,10.0,84,0.00,,SKC,0.12,VWS V14.01,2013-03-20 13:05:00,
2013-03-20 08:10:00,46.7,42.1,30.16,North,360,6.0,6.0,84,0.00,,SKC,0.12,VWS V14.01,2013-03-20 13:10:00,
2013-03-20 08:15:00,46.7,42.1,30.16,NNE,29,9.0,11.0,84,0.00,,SKC,0.12,VWS V14.01,2013-03-20 13:15:00,
2013-03-20 08:20:00,46.8,41.9,30.16,NE,42,4.0,4.0,83,0.00,,SKC,0.12,VWS V14.01,2013-03-20 13:20:00,
2013-03-20 08:25:00,46.8,41.9,30.16,ENE,62,4.0,5.0,83,0.00,,SKC,0.12,VWS V14.01,2013-03-20 13:25:00,
2013-03-20 08:30:00,46.9,42.0,30.16,NNE,25,6.0,9.0,83,0.00,,SKC,0.12,VWS V14.01,2013-03-20 13:30:00,
2013-03-20 08:35:00,47.0,41.8,30.17,NE,36,5.0,9.0,82,0.00,,SKC,0.12,VWS V14.01,2013-03-20 13:35:00,
2013-03-20 08:40:00,47.2,42.0,30.17,NE,37,4.0,7.0,82,0.00,,SKC,0.12,VWS V14.01,2013-03-20 13:40:00,
2013-03-20 08:45:00,47.4,42.2,30.17,NE,36,2.0,5.0,82,0.00,,SKC,0.12,VWS V14.01,2013-03-20 13:45:00,
2013-03-20 08:50:00,47.7,42.2,30.17,NNE,24,6.0,6.0,81,0.00,,SKC,0.12,VWS V14.01,2013-03-20 13:50:00,
2013-03-20 08:55:00,47.9,42.4,30.18,NE,46,4.0,6.0,81,0.00,,SKC,0.12,VWS V14.01,2013-03-20 13:55:00,
2013-03-20 09:00:00,48.2,42.7,30.18,NE,51,3.0,4.0,81,0.00,,SKC,0.12,VWS V14.01,2013-03-20 14:00:00,
2013-03-20 09:05:00,48.4,42.8,30.18,NNE,29,4.0,7.0,81,0.00,,SKC,0.12,VWS V14.01,2013-03-20 14:05:00,
2013-03-20 09:10:00,48.6,42.7,30.18,NE,48,6.0,6.0,80,0.00,,SKC,0.12,VWS V14.01,2013-03-20 14:10:00,
2013-03-20 09:15:00,48.7,42.5,30.18,NE,34,6.0,7.0,79,0.00,,SKC,0.12,VWS V14.01,2013-03-20 14:15:00,
2013-03-20 09:20:00,49.0,42.8,30.18,NE,38,4.0,5.0,79,0.00,,SKC,0.12,VWS V14.01,2013-03-20 14:20:00,
2013-03-20 09:25:00,49.3,42.7,30.19,NE,55,7.0,7.0,78,0.00,,SKC,0.12,VWS V14.01,2013-03-20 14:25:00,
2013-03-20 09:30:00,49.5,42.6,30.18,NNE,28,6.0,9.0,77,0.00,,SKC,0.12,VWS V14.01,2013-03-20 14:30:00,
2013-03-20 09:35:00,49.7,42.8,30.18,NE,49,6.0,10.0,77,0.00,,SKC,0.12,VWS V14.01,2013-03-20 14:35:00,
2013-03-20 09:40:00,50.1,42.8,30.18,NE,46,6.0,9.0,76,0.00,,SKC,0.12,VWS V14.01,2013-03-20 14:40:00,
2013-03-20 09:45:00,50.2,42.6,30.18,ENE,59,11.0,11.0,75,0.00,,SKC,0.12,VWS V14.01,2013-03-20 14:45:00,
2013-03-20 09:50:00,50.4,42.8,30.18,NE,49,9.0,11.0,75,0.00,,SKC,0.12,VWS V14.01,2013-03-20 14:50:00,
2013-03-20 09:55:00,50.7,42.7,30.18,NE,36,3.0,6.0,74,0.00,,SKC,0.12,VWS V14.01,2013-03-20 14:55:00,
2013-03-20 10:00:00,51.3,43.0,30.18,NNE,28,6.0,10.0,73,0.00,,SKC,0.12,VWS V14.01,2013-03-20 15:00:00,
2013-03-20 10:05:00,51.5,43.1,30.18,NE,56,7.0,9.0,73,0.00,,SKC,0.12,VWS V14.01,2013-03-20 15:05:00,
2013-03-20 10:10:00,51.7,42.6,30.19,NE,41,9.0,11.0,71,0.00,,SKC,0.12,VWS V14.01,2013-03-20 15:10:00,
2013-03-20 10:15:00,52.1,43.4,30.19,ESE,102,6.0,6.0,72,0.00,,SKC,0.12,VWS V14.01,2013-03-20 15:15:00,
2013-03-20 10:20:00,52.9,43.8,30.19,NE,34,4.0,6.0,71,0.00,,SKC,0.12,VWS V14.01,2013-03-20 15:20:00,
2013-03-20 10:25:00,53.3,43.4,30.19,ENE,59,7.0,7.0,69,0.00,,SKC,0.12,VWS V14.01,2013-03-20 15:25:00,
2013-03-20 10:30:00,53.9,43.2,30.19,NE,48,7.0,8.0,67,0.00,,SKC,0.12,VWS V14.01,2013-03-20 15:30:00,
2013-03-20 10:35:00,53.7,43.0,30.19,ENE,72,5.0,7.0,67,0.00,,SKC,0.12,VWS V14.01,2013-03-20 15:35:00,
2013-03-20 10:40:00,53.9,42.8,30.19,ENE,57,7.0,16.0,66,0.00,,SKC,0.12,VWS V14.01,2013-03-20 15:40:00,
2013-03-20 10:46:00,54.0,42.9,30.20,NE,53,11.0,11.0,66,0.00,,SKC,0.12,VWS V14.01,2013-03-20 15:46:00,
2013-03-20 10:50:00,54.4,43.3,30.19,NE,41,9.0,10.0,66,0.00,,SKC,0.12,VWS V14.01,2013-03-20 15:50:00,
2013-03-20 10:56:00,54.9,42.6,30.20,NE,45,10.0,13.0,63,0.00,,SKC,0.12,VWS V14.01,2013-03-20 15:56:00,
2013-03-20 11:00:00,55.1,42.8,30.20,NE,41,14.0,14.0,63,0.00,,SKC,0.12,VWS V14.01,2013-03-20 16:00:00,
2013-03-20 11:05:00,55.5,42.3,30.20,NNE,33,6.0,17.0,61,0.00,,SKC,0.12,VWS V14.01,2013-03-20 16:05:00,
2013-03-20 11:10:00,55.8,42.1,30.20,NE,44,14.0,15.0,60,0.00,,SKC,0.12,VWS V14.01,2013-03-20 16:10:00,
2013-03-20 11:15:00,55.6,42.0,30.20,NE,56,5.0,11.0,60,0.00,,SKC,0.12,VWS V14.01,2013-03-20 16:15:00,
2013-03-20 11:20:00,55.9,42.2,30.20,NNE,24,12.0,17.0,60,0.00,,SKC,0.12,VWS V14.01,2013-03-20 16:20:00,
2013-03-20 11:25:00,56.3,41.7,30.20,NE,42,10.0,14.0,58,0.00,,SKC,0.12,VWS V14.01,2013-03-20 16:25:00,
2013-03-20 11:31:00,56.5,41.5,30.20,NE,53,11.0,17.0,57,0.00,,SKC,0.12,VWS V14.01,2013-03-20 16:31:00,
2013-03-20 11:36:00,57.0,42.4,30.20,NNE,26,9.0,13.0,58,0.00,,SKC,0.12,VWS V14.01,2013-03-20 16:36:00,
2013-03-20 11:41:00,57.4,40.9,30.21,NE,40,10.0,16.0,54,0.00,,SKC,0.12,VWS V14.01,2013-03-20 16:41:00,
2013-03-20 11:46:00,57.3,40.8,30.20,NE,53,9.0,18.0,54,0.00,,SKC,0.12,VWS V14.01,2013-03-20 16:46:00,
2013-03-20 11:51:00,57.3,41.3,30.20,ENE,75,10.0,14.0,55,0.00,,SKC,0.12,VWS V14.01,2013-03-20 16:51:00,
2013-03-20 11:56:00,58.0,42.4,30.20,NE,49,10.0,15.0,56,0.00,,SKC,0.12,VWS V14.01,2013-03-20 16:56:00,
2013-03-20 12:01:00,58.2,41.7,30.20,NE,38,7.0,13.0,54,0.00,,SKC,0.12,VWS V14.01,2013-03-20 17:01:00,
2013-03-20 12:06:00,58.4,41.3,30.20,NE,36,5.0,10.0,53,0.00,,SKC,0.12,VWS V14.01,2013-03-20 17:06:00,
2013-03-20 12:11:00,58.5,41.0,30.20,ENE,59,9.0,12.0,52,0.00,,SKC,0.12,VWS V14.01,2013-03-20 17:11:00,
2013-03-20 12:16:00,58.3,41.3,30.20,NE,51,9.0,13.0,53,0.00,,SKC,0.12,VWS V14.01,2013-03-20 17:16:00,
2013-03-20 12:21:00,58.7,41.1,30.20,NE,55,14.0,14.0,52,0.00,,SKC,0.12,VWS V14.01,2013-03-20 17:21:00,
2013-03-20 12:26:00,59.0,40.9,30.20,NE,36,11.0,14.0,51,0.00,,SKC,0.12,VWS V14.01,2013-03-20 17:26:00,
2013-03-20 12:31:00,59.3,40.7,30.20,NE,51,7.0,7.0,50,0.00,,SKC,0.12,VWS V14.01,2013-03-20 17:31:00,
2013-03-20 12:36:00,59.7,41.6,30.20,NE,42,10.0,14.0,51,0.00,,SKC,0.12,VWS V14.01,2013-03-20 17:36:00,
2013-03-20 12:41:00,60.0,40.8,30.20,NNE,25,8.0,10.0,49,0.00,,SKC,0.12,VWS V14.01,2013-03-20 17:41:00,
2013-03-20 12:46:00,60.4,40.6,30.20,NE,34,6.0,6.0,48,0.00,,SKC,0.12,VWS V14.01,2013-03-20 17:46:00,
2013-03-20 12:51:00,60.4,40.6,30.20,ENE,57,5.0,12.0,48,0.00,,SKC,0.12,VWS V14.01,2013-03-20 17:51:00,
2013-03-20 12:56:00,60.8,41.0,30.20,NE,52,5.0,9.0,48,0.00,,SKC,0.12,VWS V14.01,2013-03-20 17:56:00,
2013-03-20 13:01:00,61.5,41.1,30.19,NE,51,15.0,16.0,47,0.00,,SKC,0.12,VWS V14.01,2013-03-20 18:01:00,
2013-03-20 13:06:00,61.1,40.2,30.18,NE,51,13.0,15.0,46,0.00,,SKC,0.12,VWS V14.01,2013-03-20 18:06:00,
2013-03-20 13:11:00,60.9,40.5,30.17,NE,46,6.0,11.0,47,0.00,,SKC,0.12,VWS V14.01,2013-03-20 18:11:00,
2013-03-20 13:16:00,61.3,40.9,30.17,NE,49,5.0,11.0,47,0.00,,SKC,0.12,VWS V14.01,2013-03-20 18:16:00,
2013-03-20 13:21:00,61.7,42.4,30.17,NNE,19,7.0,11.0,49,0.00,,SKC,0.12,VWS V14.01,2013-03-20 18:21:00,
2013-03-20 13:26:00,61.7,41.3,30.17,NNE,15,6.0,7.0,47,0.00,,SKC,0.12,VWS V14.01,2013-03-20 18:26:00,
2013-03-20 13:31:00,62.4,40.8,30.17,ENE,69,6.0,11.0,45,0.00,,SKC,0.12,VWS V14.01,2013-03-20 18:31:00,
2013-03-20 13:36:00,62.5,40.9,30.16,ESE,105,7.0,10.0,45,0.00,,SKC,0.12,VWS V14.01,2013-03-20 18:36:00,
2013-03-20 13:41:00,63.3,42.2,30.17,NE,45,5.0,9.0,46,0.00,,SKC,0.12,VWS V14.01,2013-03-20 18:41:00,
2013-03-20 13:46:00,63.5,41.2,30.16,East,101,6.0,9.0,44,0.00,,SKC,0.12,VWS V14.01,2013-03-20 18:46:00,
2013-03-20 13:51:00,63.2,40.3,30.16,NE,51,6.0,7.0,43,0.00,,SKC,0.12,VWS V14.01,2013-03-20 18:51:00,
2013-03-20 13:56:00,63.2,40.3,30.16,East,96,3.0,6.0,43,0.00,,SKC,0.12,VWS V14.01,2013-03-20 18:56:00,
2013-03-20 14:01:00,63.2,41.5,30.16,NE,41,9.0,10.0,45,0.00,,SKC,0.12,VWS V14.01,2013-03-20 19:01:00,
2013-03-20 14:06:00,63.7,38.3,30.16,ENE,77,13.0,14.0,39,0.00,,SKC,0.12,VWS V14.01,2013-03-20 19:06:00,
2013-03-20 14:11:00,63.5,38.1,30.15,East,82,4.0,7.0,39,0.00,,SKC,0.12,VWS V14.01,2013-03-20 19:11:00,
2013-03-20 14:16:00,63.6,38.9,30.15,SE,132,4.0,10.0,40,0.00,,SKC,0.12,VWS V14.01,2013-03-20 19:16:00,
2013-03-20 14:21:00,64.1,39.3,30.15,ENE,78,7.0,14.0,40,0.00,,SKC,0.12,VWS V14.01,2013-03-20 19:21:00,
2013-03-20 14:26:00,64.3,38.8,30.14,ENE,78,12.0,12.0,39,0.00,,SKC,0.12,VWS V14.01,2013-03-20 19:26:00,
2013-03-20 14:31:00,64.1,39.3,30.14,East,101,3.0,9.0,40,0.00,,SKC,0.12,VWS V14.01,2013-03-20 19:31:00,
2013-03-20 14:36:00,64.3,39.5,30.14,East,92,5.0,10.0,40,0.00,,SKC,0.12,VWS V14.01,2013-03-20 19:36:00,
2013-03-20 14:41:00,64.3,39.5,30.14,NE,42,11.0,12.0,40,0.00,,SKC,0.12,VWS V14.01,2013-03-20 19:41:00,
2013-03-20 14:46:00,64.4,39.6,30.13,ENE,63,6.0,10.0,40,0.00,,SKC,0.12,VWS V14.01,2013-03-20 19:46:00,
2013-03-20 14:51:00,64.5,40.3,30.13,ESE,107,3.0,6.0,41,0.00,,SKC,0.12,VWS V14.01,2013-03-20 19:51:00,
2013-03-20 14:56:00,65.0,40.1,30.13,SE,128,4.0,6.0,40,0.00,,SKC,0.12,VWS V14.01,2013-03-20 19:56:00,
2013-03-20 15:01:00,65.4,38.5,30.13,ESE,113,4.0,4.0,37,0.00,,SKC,0.12,VWS V14.01,2013-03-20 20:01:00,
2013-03-20 15:06:00,65.0,38.8,30.13,NE,34,3.0,6.0,38,0.00,,SKC,0.12,VWS V14.01,2013-03-20 20:06:00,
2013-03-20 15:11:00,65.1,40.8,30.12,East,92,6.0,6.0,41,0.00,,SKC,0.12,VWS V14.01,2013-03-20 20:11:00,
2013-03-20 15:16:00,65.6,38.7,30.12,East,91,4.0,4.0,37,0.00,,SKC,0.12,VWS V14.01,2013-03-20 20:16:00,
2013-03-20 15:21:00,65.6,39.3,30.12,NE,34,1.0,7.0,38,0.00,,SKC,0.12,VWS V14.01,2013-03-20 20:21:00,
2013-03-20 15:26:00,65.9,40.9,30.11,ENE,78,5.0,9.0,40,0.00,,SKC,0.12,VWS V14.01,2013-03-20 20:26:00,
2013-03-20 15:31:00,66.1,39.1,30.11,ESE,113,5.0,10.0,37,0.00,,SKC,0.12,VWS V14.01,2013-03-20 20:31:00,
2013-03-20 15:36:00,65.8,38.8,30.10,ENE,57,5.0,6.0,37,0.00,,SKC,0.12,VWS V14.01,2013-03-20 20:36:00,
2013-03-20 15:41:00,66.3,38.6,30.10,NE,46,5.0,5.0,36,0.00,,SKC,0.12,VWS V14.01,2013-03-20 20:41:00,
2013-03-20 15:46:00,66.2,39.2,30.10,ENE,57,7.0,7.0,37,0.00,,SKC,0.12,VWS V14.01,2013-03-20 20:46:00,
2013-03-20 15:51:00,66.4,39.4,30.10,East,94,2.0,4.0,37,0.00,,SKC,0.12,VWS V14.01,2013-03-20 20:51:00,
2013-03-20 15:56:00,66.8,38.3,30.09,ENE,72,5.0,13.0,35,0.00,,SKC,0.12,VWS V14.01,2013-03-20 20:56:00,
2013-03-20 16:01:00,66.2,36.3,30.08,ENE,72,9.0,11.0,33,0.00,,SKC,0.12,VWS V14.01,2013-03-20 21:01:00,
2013-03-20 16:06:00,65.6,36.5,30.08,ENE,61,3.0,7.0,34,0.00,,SKC,0.12,VWS V14.01,2013-03-20 21:06:00,
2013-03-20 16:11:00,65.7,37.3,30.08,SE,134,3.0,5.0,35,0.00,,SKC,0.12,VWS V14.01,2013-03-20 21:11:00,
2013-03-20 16:16:00,65.9,37.5,30.08,NE,55,5.0,9.0,35,0.00,,SKC,0.12,VWS V14.01,2013-03-20 21:16:00,
2013-03-20 16:21:00,66.1,37.7,30.07,East,82,3.0,7.0,35,0.00,,SKC,0.12,VWS V14.01,2013-03-20 21:21:00,
2013-03-20 16:26:00,66.3,37.1,30.07,ESE,123,4.0,7.0,34,0.00,,SKC,0.12,VWS V14.01,2013-03-20 21:26:00,
2013-03-20 16:31:00,66.0,36.1,30.07,ESE,108,4.0,11.0,33,0.00,,SKC,0.12,VWS V14.01,2013-03-20 21:31:00,
2013-03-20 16:36:00,66.0,37.6,30.07,SE,145,5.0,10.0,35,0.00,,SKC,0.12,VWS V14.01,2013-03-20 21:36:00,
2013-03-20 16:41:00,66.1,36.2,30.07,East,101,4.0,9.0,33,0.00,,SKC,0.12,VWS V14.01,2013-03-20 21:41:00,
2013-03-20 16:46:00,66.2,37.0,30.07,East,83,10.0,10.0,34,0.00,,SKC,0.12,VWS V14.01,2013-03-20 21:46:00,
2013-03-20 16:51:00,66.3,35.6,30.07,ESE,111,5.0,9.0,32,0.00,,SKC,0.12,VWS V14.01,2013-03-20 21:51:00,
2013-03-20 16:56:00,66.3,37.1,30.07,ESE,102,4.0,10.0,34,0.00,,SKC,0.12,VWS V14.01,2013-03-20 21:56:00,
2013-03-20 17:01:00,66.4,35.7,30.06,SSE,155,7.0,7.0,32,0.00,,SKC,0.12,VWS V14.01,2013-03-20 22:01:00,
2013-03-20 17:06:00,66.5,35.8,30.06,ENE,72,6.0,6.0,32,0.00,,SKC,0.12,VWS V14.01,2013-03-20 22:06:00,
2013-03-20 17:11:00,66.3,35.6,30.06,ESE,115,0.0,0.0,32,0.00,,SKC,0.12,VWS V14.01,2013-03-20 22:11:00,
2013-03-20 17:16:00,66.4,35.7,30.06,ESE,109,1.0,11.0,32,0.00,,SKC,0.12,VWS V14.01,2013-03-20 22:16:00,
2013-03-20 17:21:00,66.2,36.3,30.06,ESE,115,4.0,4.0,33,0.00,,SKC,0.12,VWS V14.01,2013-03-20 22:21:00,
2013-03-20 17:26:00,66.6,34.2,30.06,ESE,103,5.0,10.0,30,0.00,,SKC,0.12,VWS V14.01,2013-03-20 22:26:00,
2013-03-20 17:31:00,66.3,34.0,30.06,East,101,4.0,9.0,30,0.00,,SKC,0.12,VWS V14.01,2013-03-20 22:31:00,
2013-03-20 17:36:00,66.2,33.9,30.06,East,87,5.0,6.0,30,0.00,,SKC,0.12,VWS V14.01,2013-03-20 22:36:00,
2013-03-20 17:41:00,66.2,33.9,30.06,SE,139,5.0,9.0,30,0.00,,SKC,0.12,VWS V14.01,2013-03-20 22:41:00,
2013-03-20 17:46:00,66.1,34.6,30.06,SE,142,2.0,5.0,31,0.00,,SKC,0.12,VWS V14.01,2013-03-20 22:46:00,
2013-03-20 17:52:00,65.9,34.4,30.05,ENE,69,9.0,11.0,31,0.00,,SKC,0.12,VWS V14.01,2013-03-20 22:52:00,
2013-03-20 17:57:00,65.9,34.4,30.05,SE,126,6.0,6.0,31,0.00,,SKC,0.12,VWS V14.01,2013-03-20 22:57:00,
2013-03-20 18:02:00,65.7,34.3,30.05,SE,139,3.0,7.0,31,0.00,,SKC,0.12,VWS V14.01,2013-03-20 23:02:00,
2013-03-20 18:07:00,65.5,34.1,30.04,ESE,111,3.0,5.0,31,0.00,,SKC,0.12,VWS V14.01,2013-03-20 23:07:00,
2013-03-20 18:12:00,65.8,34.3,30.05,East,99,3.0,6.0,31,0.00,,SKC,0.12,VWS V14.01,2013-03-20 23:12:00,
2013-03-20 18:17:00,65.8,34.3,30.05,ENE,74,4.0,4.0,31,0.00,,SKC,0.12,VWS V14.01,2013-03-20 23:17:00,
2013-03-20 18:22:00,65.5,34.9,30.05,East,87,3.0,6.0,32,0.00,,SKC,0.12,VWS V14.01,2013-03-20 23:22:00,
2013-03-20 18:27:00,65.0,34.5,30.05,SE,146,6.0,7.0,32,0.00,,SKC,0.12,VWS V14.01,2013-03-20 23:27:00,
2013-03-20 18:32:00,64.6,34.1,30.06,East,101,2.0,4.0,32,0.00,,SKC,0.12,VWS V14.01,2013-03-20 23:32:00,
2013-03-20 18:37:00,64.1,33.7,30.06,SE,138,6.0,10.0,32,0.00,,SKC,0.12,VWS V14.01,2013-03-20 23:37:00,
2013-03-20 18:42:00,63.8,34.2,30.06,ESE,119,2.0,6.0,33,0.00,,SKC,0.12,VWS V14.01,2013-03-20 23:42:00,
2013-03-20 18:47:00,63.6,34.0,30.06,ESE,119,3.0,5.0,33,0.00,,SKC,0.12,VWS V14.01,2013-03-20 23:47:00,
2013-03-20 18:52:00,63.5,33.9,30.05,ESE,107,4.0,5.0,33,0.00,,SKC,0.12,VWS V14.01,2013-03-20 23:52:00,
2013-03-20 18:57:00,63.5,33.9,30.05,East,87,0.0,3.0,33,0.00,,SKC,0.12,VWS V14.01,2013-03-20 23:57:00,
2013-03-20 19:02:00,63.4,33.8,30.05,ESE,107,4.0,4.0,33,0.00,,SKC,0.12,VWS V14.01,2013-03-21 00:02:00,
2013-03-20 19:07:00,63.1,33.6,30.05,ESE,113,1.0,4.0,33,0.00,,SKC,0.12,VWS V14.01,2013-03-21 00:07:00,
2013-03-20 19:12:00,62.7,34.0,30.05,East,96,1.0,3.0,34,0.00,,SKC,0.12,VWS V14.01,2013-03-21 00:12:00,
2013-03-20 19:17:00,62.3,34.3,30.04,ESE,106,2.0,4.0,35,0.00,,SKC,0.12,VWS V14.01,2013-03-21 00:17:00,
2013-03-20 19:22:00,61.9,34.7,30.05,ESE,117,1.0,1.0,36,0.00,,SKC,0.12,VWS V14.01,2013-03-21 00:22:00,
2013-03-20 19:27:00,61.6,34.4,30.05,East,100,1.0,3.0,36,0.00,,SKC,0.12,VWS V14.01,2013-03-21 00:27:00,
2013-03-20 19:32:00,61.3,34.1,30.05,ESE,109,1.0,2.0,36,0.00,,SKC,0.12,VWS V14.01,2013-03-21 00:32:00,
2013-03-20 19:37:00,61.1,34.7,30.05,East,91,1.0,2.0,37,0.00,,SKC,0.12,VWS V14.01,2013-03-21 00:37:00,
2013-03-20 19:42:00,60.7,34.3,30.05,East,90,0.0,1.0,37,0.00,,SKC,0.12,VWS V14.01,2013-03-21 00:42:00,
2013-03-20 19:47:00,60.3,34.6,30.05,East,86,0.0,2.0,38,0.00,,SKC,0.12,VWS V14.01,2013-03-21 00:47:00,
2013-03-20 19:52:00,59.9,34.9,30.05,East,85,0.0,2.0,39,0.00,,SKC,0.12,VWS V14.01,2013-03-21 00:52:00,
2013-03-20 19:57:00,59.5,34.5,30.05,East,86,0.0,0.0,39,0.00,,SKC,0.12,VWS V14.01,2013-03-21 00:57:00,
2013-03-20 20:02:00,59.1,34.8,30.05,East,88,1.0,1.0,40,0.00,,SKC,0.12,VWS V14.01,2013-03-21 01:02:00,
2013-03-20 20:07:00,59.0,34.7,30.05,East,101,0.0,3.0,40,0.00,,SKC,0.12,VWS V14.01,2013-03-21 01:07:00,
2013-03-20 20:12:00,59.0,35.3,30.04,East,92,1.0,4.0,41,0.00,,SKC,0.12,VWS V14.01,2013-03-21 01:12:00,
2013-03-20 20:17:00,58.7,35.1,30.04,ENE,78,1.0,4.0,41,0.00,,SKC,0.12,VWS V14.01,2013-03-21 01:17:00,
2013-03-20 20:22:00,58.5,34.9,30.04,East,101,3.0,3.0,41,0.00,,SKC,0.12,VWS V14.01,2013-03-21 01:22:00,
2013-03-20 20:27:00,58.4,35.4,30.04,ENE,76,3.0,4.0,42,0.00,,SKC,0.12,VWS V14.01,2013-03-21 01:27:00,
2013-03-20 20:32:00,58.4,35.4,30.04,East,95,2.0,4.0,42,0.00,,SKC,0.12,VWS V14.01,2013-03-21 01:32:00,
2013-03-20 20:38:00,58.2,35.8,30.04,East,92,2.0,3.0,43,0.00,,SKC,0.12,VWS V14.01,2013-03-21 01:38:00,
2013-03-20 20:43:00,58.1,35.7,30.04,East,79,1.0,3.0,43,0.00,,SKC,0.12,VWS V14.01,2013-03-21 01:43:00,
2013-03-20 20:48:00,58.1,36.3,30.04,East,82,4.0,4.0,44,0.00,,SKC,0.12,VWS V14.01,2013-03-21 01:48:00,
2013-03-20 20:53:00,58.0,36.2,30.04,East,96,3.0,4.0,44,0.00,,SKC,0.12,VWS V14.01,2013-03-21 01:53:00,
2013-03-20 20:58:00,57.9,36.7,30.03,ESE,116,4.0,4.0,45,0.00,,SKC,0.12,VWS V14.01,2013-03-21 01:58:00,
2013-03-20 21:03:00,57.8,36.6,30.03,East,98,5.0,6.0,45,0.00,,SKC,0.12,VWS V14.01,2013-03-21 02:03:00,
2013-03-20 21:08:00,57.7,36.5,30.03,ESE,111,7.0,7.0,45,0.00,,SKC,0.12,VWS V14.01,2013-03-21 02:08:00,
2013-03-20 21:13:00,57.6,37.0,30.03,East,101,4.0,6.0,46,0.00,,SKC,0.12,VWS V14.01,2013-03-21 02:13:00,
2013-03-20 21:18:00,57.4,36.8,30.03,East,96,2.0,5.0,46,0.00,,SKC,0.12,VWS V14.01,2013-03-21 02:18:00,
2013-03-20 21:23:00,57.2,37.2,30.03,ESE,120,5.0,5.0,47,0.00,,SKC,0.12,VWS V14.01,2013-03-21 02:23:00,
2013-03-20 21:28:00,57.1,37.1,30.03,East,94,2.0,5.0,47,0.00,,SKC,0.12,VWS V14.01,2013-03-21 02:28:00,
2013-03-20 21:33:00,57.1,37.1,30.02,East,93,1.0,2.0,47,0.00,,SKC,0.12,VWS V14.01,2013-03-21 02:33:00,
2013-03-20 21:38:00,56.9,36.9,30.02,ENE,61,3.0,6.0,47,0.00,,SKC,0.12,VWS V14.01,2013-03-21 02:38:00,
2013-03-20 21:43:00,56.8,36.8,30.02,ESE,112,1.0,4.0,47,0.00,,SKC,0.12,VWS V14.01,2013-03-21 02:43:00,
2013-03-20 21:48:00,56.8,37.3,30.02,ESE,105,3.0,5.0,48,0.00,,SKC,0.12,VWS V14.01,2013-03-21 02:48:00,
2013-03-20 21:53:00,56.8,37.3,30.02,ESE,113,5.0,5.0,48,0.00,,SKC,0.12,VWS V14.01,2013-03-21 02:53:00,
2013-03-20 21:58:00,56.8,37.3,30.02,SSE,149,5.0,5.0,48,0.00,,SKC,0.12,VWS V14.01,2013-03-21 02:58:00,
2013-03-20 22:03:00,56.9,37.4,30.02,SE,133,4.0,9.0,48,0.00,,SKC,0.12,VWS V14.01,2013-03-21 03:03:00,
2013-03-20 22:08:00,56.9,37.4,30.02,SE,141,5.0,5.0,48,0.00,,SKC,0.12,VWS V14.01,2013-03-21 03:08:00,
2013-03-20 22:13:00,56.8,37.3,30.02,SE,127,2.0,4.0,48,0.00,,SKC,0.12,VWS V14.01,2013-03-21 03:13:00,
2013-03-20 22:18:00,56.9,37.4,30.02,SE,124,3.0,9.0,48,0.00,,SKC,0.12,VWS V14.01,2013-03-21 03:18:00,
2013-03-20 22:23:00,56.9,38.0,30.03,ESE,121,3.0,3.0,49,0.00,,SKC,0.12,VWS V14.01,2013-03-21 03:23:00,
2013-03-20 22:28:00,56.8,37.9,30.02,SE,132,5.0,5.0,49,0.00,,SKC,0.12,VWS V14.01,2013-03-21 03:28:00,
2013-03-20 22:33:00,56.8,38.4,30.02,SE,132,3.0,6.0,50,0.00,,SKC,0.12,VWS V14.01,2013-03-21 03:33:00,
2013-03-20 22:38:00,56.7,38.8,30.02,SE,137,4.0,4.0,51,0.00,,SKC,0.12,VWS V14.01,2013-03-21 03:38:00,
2013-03-20 22:43:00,56.5,39.1,30.02,SE,144,2.0,3.0,52,0.00,,SKC,0.12,VWS V14.01,2013-03-21 03:43:00,
2013-03-20 22:48:00,56.3,38.9,30.02,SSE,152,4.0,6.0,52,0.00,,SKC,0.12,VWS V14.01,2013-03-21 03:48:00,
2013-03-20 22:53:00,56.2,38.8,30.02,SSE,155,5.0,5.0,52,0.00,,SKC,0.12,VWS V14.01,2013-03-21 03:53:00,
2013-03-20 22:58:00,56.1,39.2,30.01,SE,141,1.0,5.0,53,0.00,,SKC,0.12,VWS V14.01,2013-03-21 03:58:00,
2013-03-20 23:00:00,56.1,39.2,30.01,SE,143,1.0,4.0,53,0.00,,SKC,0.12,VWS V14.01,2013-03-21 04:00:00,
2013-03-20 23:05:00,56.0,39.1,30.01,ESE,123,4.0,5.0,53,0.00,,SKC,0.12,VWS V14.01,2013-03-21 04:05:00,
2013-03-20 23:10:00,55.9,39.0,30.00,SE,142,6.0,8.0,53,0.00,,SKC,0.12,VWS V14.01,2013-03-21 04:10:00,
2013-03-20 23:15:00,56.0,38.6,30.00,ESE,109,4.0,6.0,52,0.00,,SKC,0.12,VWS V14.01,2013-03-21 04:15:00,
2013-03-20 23:20:00,56.0,38.6,30.00,SE,140,5.0,5.0,52,0.00,,SKC,0.12,VWS V14.01,2013-03-21 04:20:00,
2013-03-20 23:25:00,56.0,38.6,30.01,SSE,155,5.0,9.0,52,0.00,,SKC,0.12,VWS V14.01,2013-03-21 04:25:00,
2013-03-20 23:30:00,56.0,38.6,30.01,SE,138,7.0,7.0,52,0.00,,SKC,0.12,VWS V14.01,2013-03-21 04:30:00,
2013-03-20 23:35:00,55.8,38.5,30.01,SSE,155,1.0,6.0,52,0.00,,SKC,0.12,VWS V14.01,2013-03-21 04:35:00,
2013-03-20 23:40:00,55.6,38.3,30.00,SSE,152,5.0,7.0,52,0.00,,SKC,0.12,VWS V14.01,2013-03-21 04:40:00,
2013-03-20 23:45:00,55.5,38.7,30.01,SE,144,4.0,5.0,53,0.00,,SKC,0.12,VWS V14.01,2013-03-21 04:45:00,
2013-03-20 23:50:00,55.3,38.5,30.00,SE,144,2.0,7.0,53,0.00,,SKC,0.12,VWS V14.01,2013-03-21 04:50:00,
2013-03-20 23:55:00,55.2,38.4,30.00,ESE,122,3.0,6.0,53,0.00,,SKC,0.12,VWS V14.01,2013-03-21 04:55:00,